Flag for U.S.A. Weather past 2 weeks in Buffalo, New York, U.S.A.

Now
19 °F

Light snow. Cloudy.


Feels Like: 5 °F
Forecast: 12 / 26 °F
Wind: 15 mph from Northeast

Location: Greater Buffalo International Airport

Current Time: Feb 1, 2015 at 2:56:49 PM

Latest Report: Feb 1, 2015 at 1:54 PM


Visibility: 1 mi

Pressure: 30.16 "Hg

Humidity: 77%

Dew point: 13 °F

Location of BuffaloLocation

Historic Weather in Buffalo — Graph

°F

Buffalo temperature yesterday

Maximum temperature yesterday: 26 °F (at 10:54 PM)
Minimum temperature yesterday: 4 °F (at 2:54 AM)
Average temperature yesterday: 16 °F

Past Weeks' High & Low Weather Summary

 TemperatureHumidityPressure
High44 °F (Jan 18, 2:54 AM)93% (Jan 24, 3:54 PM)30.41 "Hg (Jan 24, 3:54 PM)
Low4 °F (Jan 31, 2:54 AM)34% (Jan 29, 11:54 AM)29.47 "Hg (Jan 24, 3:02 PM)
Average22 °F74%30.03 "Hg
* Reported Jan 17 12:54 PM — Feb 1 12:54 PM, Buffalo, Weather by CustomWeather, © 2014

Note: Actual official high and low records may vary slightly from our data, if they occured in-between our weather recording intervals... More about our weather records

Advertising

Buffalo weather history for previous 24 hours

 ConditionsComfort  
Time TempWeatherWind HumidityBarometerVisibility
12:54 PM
Feb 1
20 °FLight snow. Mostly cloudy.15 mph78%30.18 "Hg2 mi
11:54 AM20 °FLight snow. Mostly cloudy.15 mph78%30.21 "Hg7 mi
10:54 AM21 °FLight snow. Mostly cloudy.13 mph78%30.23 "Hg9 mi
9:54 AM21 °FLight snow. Mostly cloudy.14 mph81%30.23 "Hg7 mi
8:54 AM24 °FMostly cloudy.15 mph75%30.23 "Hg9 mi
7:54 AM25 °FOvercast.9 mph72%30.22 "Hg9 mi
6:54 AM26 °FLight snow. Mostly cloudy.9 mph74%30.22 "Hg9 mi
5:54 AM26 °FLight snow. Ice fog.7 mph84%30.20 "Hg6 mi
4:54 AM27 °FLight snow. Overcast.7 mph81%30.19 "Hg7 mi
3:54 AM27 °FLight snow. Overcast.8 mph81%30.19 "Hg7 mi
2:54 AM27 °FLight snow. Overcast.8 mph81%30.18 "Hg7 mi
1:54 AM27 °FLight snow. Overcast.12 mph78%30.18 "Hg8 mi
12:54 AM27 °FLight snow. Overcast.12 mph75%30.18 "Hg9 mi
11:54 PM
Jan 31
26 °FLight snow. Overcast.10 mph74%30.19 "Hg9 mi
10:54 PM26 °FOvercast.12 mph74%30.18 "Hg10 mi
9:54 PM25 °FOvercast.15 mph78%30.19 "Hg10 mi
8:54 PM25 °FOvercast.16 mph75%30.21 "Hg10 mi
7:54 PM25 °FOvercast.14 mph72%30.21 "Hg10 mi
6:54 PM23 °FMostly cloudy.10 mph74%30.23 "Hg10 mi
5:54 PM22 °FPassing clouds.10 mph75%30.23 "Hg10 mi
4:54 PM21 °FBroken clouds.15 mph71%30.23 "Hg10 mi
3:54 PM20 °FPartly sunny.16 mph71%30.24 "Hg10 mi
2:54 PM21 °FScattered clouds.15 mph65%30.26 "Hg10 mi
Weather by CustomWeather, © 2014

See weather overviewHow to use our weather pages